Regional Weather Roundup
Issued by NWS Charleston, SC

Home | Current Version | Previous Version | Text Only | Print | Product List | Glossary On
Versions: 1 2 3 4 5 6 7 8 9 10 11 12 13 14 15 16 17 18 19 20 21 22 23 24 25 26 27 28 29 30 31 32 33 34 35 36 37 38 39 40 41 42 43 44 45 46 47 48 49 50
000
ASUS42 KCHS 240828
RWRCHS

REGIONAL WEATHER ROUNDUP
NATIONAL WEATHER SERVICE CHARLESTON SC
400 AM EDT WED AUG 24 2016

NOTE: "FAIR" INDICATES FEW OR NO CLOUDS BELOW 12,000 FEET WITH NO
SIGNIFICANT WEATHER AND/OR OBSTRUCTIONS TO VISIBILITY.

NOT ALL STATIONS ARE QUALITY CONTROLLED. USE DATA WITH CAUTION...
ESPECIALLY DEWPOINT OBSERVATIONS.

SCZ027-030-031-034>040-042>050-240900-
...SOUTHEAST SOUTH CAROLINA...

CITY           SKY/WX    TMP DP  RH WIND       PRES   REMARKS
N CHARLESTON   PTCLDY    72  68  87 N5        30.20F
WATERFRONT PRK   N/A     81  72  74 NE6       30.18F
MOUNT PLEASANT FAIR      72  70  94 CALM      30.20S
JOHNS ISLAND   FAIR      73  70  88 CALM      30.19F
PINOPOLIS        N/A     75  72  88 VRB3      30.14F
MONCKS CORNER  FAIR      68  66  94 CALM      30.21S
SUMMERVILLE    FAIR      70  70 100 CALM      30.22S
BEAUFORT MCAS  PTCLDY    74  71  91 N6        30.19F
BEAUFORT ARPT  FAIR      77  70  78 CALM      30.19R
HILTON HEAD IS CLEAR     81  70  69 VRB3      30.19S
WALTERBORO     SUNNY     73  73 100 NE5       30.21S
ALLENDALE      FAIR      73  70  88 CALM      30.20F

...SOUTHERN MIDLANDS AND PEE DEE...

CITY           SKY/WX    TMP DP  RH WIND       PRES   REMARKS
GEORGETOWN     FAIR      72  68  88 CALM      30.22S
KINGSTREE      FAIR      64  63  94 CALM      30.23S
ORANGEBURG     CLEAR     70  69  97 CALM      30.22F
BARNWELL       NOT AVBL
AIKEN          FAIR      72  68  88 E5        30.26F
MANNING        FAIR      66  64  94 CALM      30.23R
COLUMBIA       PTCLDY    74  69  85 CALM      30.23S
SUMTER         CLEAR     70  67  89 NE5       30.21S
FLORENCE       PTCLDY    71  66  84 NE3       30.25R
MYRTLE BEACH   PTCLDY    75  61  60 N6        30.24S
N MYRTLE BEACH CLEAR     71  66  84 NE5       30.22S

$$

GAZ063-065-086>088-099>101-113>116-118-119-134>141-150-240900-
...SOUTHEAST GEORGIA...

CITY           SKY/WX    TMP DP  RH WIND       PRES   REMARKS
SAVANNAH ARPT  CLEAR     75  71  87 NE5       30.19F
HUNTER AAF     CLEAR     77  75  93 CALM      30.16F
FORT STEWART   CLEAR     74  72  93 CALM      30.16F
STATESBORO     PTCLDY    75  73  95 CALM      30.20S
SYLVANIA       SUNNY    N/A N/A N/A E3        30.21F
CLAXTON        FAIR      72  72 100 N3        30.19S FOG

...CSRA...CENTRAL AND FAR SOUTHEAST GEORGIA...

CITY           SKY/WX    TMP DP  RH WIND       PRES   REMARKS
THOMSON        CLOUDY    78  76  94 MISG      30.26S
AUGUSTA-BUSH   MOCLDY    74  71  91 CALM      30.21S
AUGUSTA-DANIEL CLOUDY    79  70  74 E5        30.23R
SWAINSBORO     FAIR      75  72  88 E3        30.20S
VIDALIA        CLEAR     75  75 100 E3        30.19S
EASTMAN        FAIR      76  76 100 CALM      30.21S
HAZLEHURST     FAIR      76  76 100 CALM      30.17S
ALMA           CLOUDY    74  74 100 CALM      30.16F
WAYCROSS         N/A     77  77 100 CALM      30.16F
JESUP          FAIR      75  75 100 CALM      30.17F
BAXLEY         FAIR      75  75 100 E5        30.17S
BRUNSWICK      CLEAR     77  77 100 CALM      30.16F
SAINT SIMONS   PTCLDY    83  73  72 E12       30.15F

$$

SCZ027-028-034-036>038-045-046-048>050-GAZ119-141-240900-
...LAKE AND SUPPLEMENTAL COASTAL OBSERVATIONS...

STATION/POSITION TIME  TEMP    WIND        PRES    WAVE   SWELL
                       AIR SEA DIR/SP/G            HT/PER HT/PER/DIR
                 (UTC) (F)     (DEG/KT/KT) (MB)    (FT/S) (FT/S/D)
WINYAH BAY       0700   81      90/  9     1022.0F
LAKE MURRAY      0700   78     130/  4/  6 1023.0F
ACE BASIN NERRS  0700   75        CALM     1023.0S
FORT PULASKI     0800   83 87   70/ 12/ 14 1022.3F
SAPELO ISLAND    0800   82      80/  4     1021.0F

$$

ANZ835-935-AMZ111-154-330-350-352-354-370-450-454-472-240900-
...C-MAN AND BUOY OBSERVATIONS...

STATION/POSITION TIME  TEMP    WIND        PRES    WAVE   SWELL
                       AIR SEA DIR/SP/G            HT/PER HT/PER/DIR
                 (UTC) (F)     (DEG/KT/KT) (MB)    (FT/S) (FT/S/D)
BUOY 41004       0750   82 84   50/ 14/ 14 1021.6F   3/ 5   2/110/ 7
BUOY 41008       0750   84 85   90/ 12/ 16 1020.9F   3/ 5   2/100/ 6
FOLLY BEACH CMAN 0800   82      80/ 12/ 14 1022.6F
CAPERS NEARSHORE 0808   82 85   80/ 12/ 17 1022.2F
FRIPP NEARSHORE  0708   83 87   90/ 12/ 16 1021.6F


STATION/POSITION TIME  TEMP    WIND        PRES    WAVE   SWELL
                       AIR SEA DIR/SP/G            HT/PER HT/PER/DIR
                 (UTC) (F)     (DEG/KT/KT) (MB)    (FT/S) (FT/S/D)
5E ST. MARYS GA  0801      84                N/A     3/ 6
FRYING PAN BUOY  0800   82 85   60/ 14/ 17 1022.5F
BUOY 41025       0750   78 84   40/ 12/ 16 1023.1F   3/ 8   2/ 60/ 8
CAPE LOOKOUT NC  0800   74      20/  9/ 10 1023.3F
BUOY 41002       0750   82 85   50/ 14/ 17 1020.6F   4/ 5   2/ 60/ 8
BUOY 41010       NOT AVBL
ST AUGUSTINE FL  0800   83 84   70/ 16/ 18 1021.0F


$$




USA.gov is the U.S. government's official web portal to all federal, state and local government web resources and services.